When you browse on this site, cookies collect data to enhance your experience and personalize the content and advertising you see.
Visit our Privacy Policy to learn more. By continuing to use the site, you agree to this use of cookies and data.
  • In Hungary
  • List of Countries
  • For 7 days
  • Water Temperature
  • Satellite Maps
  • Weather Map
  • News
  • Weather Widgets
  • user-avatar
    Login

    Hourly Weather Brzeszcze

    Today, 20 January, Sunday

    Time Temperature Precipitation Wind Pressure Humidity
    00:00 -4°C° 0 mm 1 mps 741 mmHg 77%
    01:00 -4°C° 0 mm 1 mps 741 mmHg 77%
    02:00 -4°C° 0 mm 1 mps 740 mmHg 77%
    03:00 -4°C° 0 mm 1 mps 740 mmHg 76%
    04:00 -4°C° 0 mm 1 mps 740 mmHg 76%
    05:00 -4°C° 0 mm 1 mps 740 mmHg 75%
    06:00 -4°C° 0 mm 1 mps 739 mmHg 74%
    07:00 -4°C° 0 mm 1 mps 739 mmHg 74%
    08:00 -3°C° 0 mm 1 mps 739 mmHg 71%
    09:00 -4°C° 0 mm 0 mps 740 mmHg 68%
    10:00 -3°C° 0 mm 0 mps 740 mmHg 65%
    11:00 -1°C° 0 mm 1 mps 739 mmHg 63%
    12:00 0°C° 0 mm 1 mps 739 mmHg 61%
    13:00 0°C° 0 mm 1 mps 739 mmHg 59%
    14:00 -1°C° 0 mm 1 mps 739 mmHg 64%
    15:00 -1°C° 0 mm 1 mps 739 mmHg 68%
    16:00 -2°C° 0 mm 1 mps 739 mmHg 73%
    17:00 -3°C° 0 mm 1 mps 740 mmHg 75%
    18:00 -3°C° 0 mm 1 mps 740 mmHg 77%
    19:00 -5°C° 0 mm 0 mps 740 mmHg 79%
    20:00 -5°C° 0 mm 0 mps 741 mmHg 79%
    21:00 -5°C° 0 mm 0 mps 741 mmHg 80%
    22:00 -5°C° 0 mm 0 mps 741 mmHg 80%
    23:00 -6°C° 0 mm 0 mps 742 mmHg 80%

    Tomorrow, 21 January, Monday

    Time Temperature Precipitation Wind Pressure Humidity
    00:00 -6°C° 0 mm 0 mps 742 mmHg 80%
    01:00 -6°C° 0 mm 0 mps 742 mmHg 80%
    02:00 -6°C° 0 mm 0 mps 742 mmHg 81%
    03:00 -6°C° 0 mm 0 mps 742 mmHg 81%
    04:00 -6°C° 0 mm 0 mps 742 mmHg 81%
    05:00 -7°C° 0 mm 1 mps 743 mmHg 81%
    06:00 -7°C° 0 mm 1 mps 743 mmHg 81%
    07:00 -7°C° 0 mm 1 mps 743 mmHg 81%
    08:00 -6°C° 0 mm 1 mps 743 mmHg 77%
    09:00 -5°C° 0 mm 0 mps 744 mmHg 74%
    10:00 -4°C° 0 mm 0 mps 744 mmHg 71%
    11:00 -3°C° 0 mm 0 mps 744 mmHg 69%
    12:00 -2°C° 0 mm 0 mps 744 mmHg 68%
    13:00 0°C° 0 mm 1 mps 743 mmHg 66%
    14:00 -1°C° 0 mm 1 mps 743 mmHg 70%
    15:00 -2°C° 0 mm 1 mps 743 mmHg 75%
    16:00 -2°C° 0 mm 1 mps 743 mmHg 79%
    17:00 -3°C° 0 mm 1 mps 743 mmHg 81%
    18:00 -3°C° 0 mm 1 mps 743 mmHg 82%
    19:00 -4°C° 0 mm 1 mps 743 mmHg 84%
    20:00 -4°C° 0 mm 1 mps 743 mmHg 84%
    21:00 -4°C° 0 mm 1 mps 743 mmHg 83%
    22:00 -4°C° 0 mm 1 mps 743 mmHg 83%
    23:00 -6°C° 0 mm 1 mps 742 mmHg 82%

    Day after tomorrow, 22 January, Tuesday

    Time Temperature Precipitation Wind Pressure Humidity
    00:00 -6°C° 0 mm 1 mps 742 mmHg 81%
    01:00 -7°C° 0 mm 2 mps 742 mmHg 80%
    02:00 -7°C° 0 mm 2 mps 741 mmHg 80%
    03:00 -7°C° 0 mm 2 mps 741 mmHg 80%
    04:00 -7°C° 0 mm 2 mps 740 mmHg 80%
    05:00 -7°C° 0 mm 2 mps 740 mmHg 79%
    06:00 -7°C° 0 mm 2 mps 740 mmHg 79%
    07:00 -7°C° 0 mm 2 mps 739 mmHg 79%
    08:00 -6°C° 0 mm 2 mps 739 mmHg 75%
    09:00 -5°C° 0 mm 2 mps 739 mmHg 72%
    10:00 -2°C° 0 mm 1 mps 739 mmHg 69%
    11:00 -1°C° 0 mm 1 mps 738 mmHg 66%
    12:00 0°C° 0 mm 1 mps 737 mmHg 62%
    13:00 +1°C° 0 mm 1 mps 737 mmHg 59%
    14:00 0°C° 0 mm 1 mps 736 mmHg 65%
    15:00 -1°C° 0 mm 1 mps 735 mmHg 70%
    16:00 -1°C° 0 mm 1 mps 735 mmHg 75%
    17:00 -4°C° 0 mm 2 mps 734 mmHg 76%
    18:00 -5°C° 0 mm 2 mps 734 mmHg 77%
    19:00 -5°C° 0 mm 2 mps 734 mmHg 79%
    20:00 -6°C° 0 mm 2 mps 733 mmHg 79%
    21:00 -6°C° 0 mm 2 mps 733 mmHg 79%
    22:00 -6°C° 0 mm 2 mps 732 mmHg 80%
    23:00 -6°C° 0 mm 2 mps 732 mmHg 78%

    23 January, Wednesday

    Time Temperature Precipitation Wind Pressure Humidity
    00:00 -6°C° 0 mm 2 mps 731 mmHg 77%
    01:00 -6°C° 0 mm 2 mps 730 mmHg 76%
    02:00 -6°C° 0 mm 2 mps 730 mmHg 76%
    03:00 -5°C° 0 mm 2 mps 729 mmHg 76%
    04:00 -5°C° 0 mm 2 mps 728 mmHg 75%
    05:00 -5°C° 0 mm 2 mps 728 mmHg 78%
    06:00 -5°C° 0 mm 2 mps 728 mmHg 80%
    07:00 -5°C° 0 mm 2 mps 728 mmHg 83%
    08:00 -4°C° 0 mm 2 mps 728 mmHg 82%
    09:00 -3°C° 0 mm 2 mps 728 mmHg 82%
    10:00 -3°C° 0 mm 2 mps 728 mmHg 82%
    11:00 -2°C° 0.3 mm 2 mps 728 mmHg 85%
    12:00 -2°C° 0.3 mm 2 mps 727 mmHg 88%
    13:00 -2°C° 0.3 mm 2 mps 727 mmHg 91%
    14:00 -2°C° 0.2 mm 2 mps 727 mmHg 92%
    15:00 -2°C° 0.2 mm 2 mps 727 mmHg 93%
    16:00 0°C° 0.2 mm 1 mps 727 mmHg 94%
    17:00 0°C° 0.1 mm 1 mps 727 mmHg 94%
    18:00 0°C° 0.1 mm 1 mps 727 mmHg 95%
    19:00 0°C° 0.1 mm 1 mps 728 mmHg 95%
    20:00 0°C° 0 mm 1 mps 728 mmHg 95%
    21:00 0°C° 0 mm 1 mps 728 mmHg 96%
    22:00 -1°C° 0 mm 0 mps 728 mmHg 96%
    23:00 -1°C° 0.2 mm 0 mps 728 mmHg 96%

    24 January, Thursday

    Time Temperature Precipitation Wind Pressure Humidity
    00:00 -1°C° 0.2 mm 0 mps 728 mmHg 96%
    01:00 -1°C° 0.2 mm 0 mps 728 mmHg 96%
    02:00 -1°C° 0.4 mm 0 mps 728 mmHg 97%
    03:00 -1°C° 0.4 mm 0 mps 729 mmHg 97%
    04:00 0°C° 0.4 mm 1 mps 729 mmHg 97%
    05:00 0°C° 0.4 mm 1 mps 729 mmHg 97%
    06:00 0°C° 0.4 mm 1 mps 729 mmHg 97%
    07:00 0°C° 0.4 mm 1 mps 730 mmHg 97%
    08:00 0°C° 0.1 mm 1 mps 730 mmHg 96%
    09:00 +1°C° 0.1 mm 1 mps 731 mmHg 95%
    10:00 +1°C° 0.1 mm 1 mps 731 mmHg 95%
    11:00 +1°C° 0.1 mm 1 mps 731 mmHg 95%
    12:00 +1°C° 0.1 mm 1 mps 731 mmHg 96%
    13:00 +2°C° 0.1 mm 1 mps 731 mmHg 96%
    14:00 +2°C° 0.1 mm 1 mps 732 mmHg 96%
    15:00 +1°C° 0.1 mm 1 mps 732 mmHg 96%
    16:00 +1°C° 0.1 mm 1 mps 732 mmHg 97%
    17:00 -1°C° 0.1 mm 2 mps 732 mmHg 97%
    18:00 -1°C° 0.1 mm 2 mps 733 mmHg 97%
    19:00 -1°C° 0.1 mm 2 mps 733 mmHg 97%
    20:00 -1°C° 0.1 mm 2 mps 734 mmHg 96%
    21:00 -1°C° 0.1 mm 2 mps 734 mmHg 96%
    22:00 -1°C° 0.1 mm 2 mps 734 mmHg 96%
    23:00 -1°C° 0.1 mm 2 mps 734 mmHg 96%

    25 January, Friday

    Time Temperature Precipitation Wind Pressure Humidity
    00:00 -1°C° 0.1 mm 2 mps 734 mmHg 96%
    01:00 -1°C° 0.1 mm 3 mps 734 mmHg 95%
    02:00 -2°C° 0.1 mm 3 mps 735 mmHg 95%
    03:00 -2°C° 0.1 mm 3 mps 735 mmHg 95%
    04:00 -2°C° 0.1 mm 3 mps 735 mmHg 95%
    05:00 -2°C° 0.3 mm 3 mps 735 mmHg 95%
    06:00 -2°C° 0.3 mm 3 mps 735 mmHg 95%
    07:00 -2°C° 0.3 mm 3 mps 735 mmHg 95%
    08:00 -2°C° 0.2 mm 3 mps 735 mmHg 94%
    09:00 -2°C° 0.2 mm 3 mps 736 mmHg 94%
    10:00 -2°C° 0.2 mm 3 mps 736 mmHg 93%
    11:00 -2°C° 0.3 mm 3 mps 736 mmHg 93%
    12:00 -2°C° 0.3 mm 3 mps 736 mmHg 92%
    13:00 -1°C° 0.3 mm 3 mps 736 mmHg 92%
    14:00 -2°C° 0.2 mm 3 mps 736 mmHg 92%
    15:00 -3°C° 0.2 mm 4 mps 736 mmHg 92%
    16:00 -3°C° 0.2 mm 4 mps 737 mmHg 92%
    17:00 -2°C° 0.3 mm 3 mps 737 mmHg 92%
    18:00 -4°C° 0.3 mm 3 mps 738 mmHg 92%
    19:00 -4°C° 0.3 mm 3 mps 738 mmHg 93%
    20:00 -4°C° 0.3 mm 3 mps 738 mmHg 92%
    21:00 -4°C° 0.3 mm 3 mps 739 mmHg 92%
    22:00 -5°C° 0.3 mm 3 mps 739 mmHg 92%
    23:00 -5°C° 0.1 mm 3 mps 739 mmHg 91%
    Show more